Location: Marcé
(47.5801°N, 0.3280°W)
Time: 21:28:51
(UTC+01:00)

Altair - Pass Details

Date: 18 December 2021
Orbit: 1501 x 1683 km, 47.2° (Epoch: 20 January)

Event Time Altitude Azimuth Distance (km) Brightness Sun altitude
Rises 18:42:12 0° 290° (WNW) 4,759 10.9 -14.5°
Reaches altitude 10° 18:45:28 10° 285° (WNW) 3,748 10.4 -15.0°
Maximum altitude 18:54:13 45° 217° (SW) 1,978 8.5 -16.4°
Drops below altitude 10° 19:02:45 10° 148° (SSE) 3,648 9.3 -17.8°
Sets 19:05:54 0° 142° (SE) 4,622 9.8 -18.3°
